PACCTY Weather Reports


Display with metric or nautical units.
time (UTC)temp
F
wind
direction
speed
MPH
gust
MPH
rain 1hr
in
rain 24hr
in
rain mn
in
humidity
%
barometer
mb
20260507200522 63 235 1.0 5.0 0.00 0.07 0.00 67 1017.8
20260507194522 62 218 2.0 5.0 0.00 0.07 0.00 68 1018.0
20260507193022 62 232 4.0 7.0 0.00 0.07 0.00 69 1018.1
20260507192522 61 236 3.0 6.0 0.00 0.07 0.00 69 1018.2
20260507180022 58 221 1.0 4.0 0.00 0.07 0.00 73 1018.7
20260507175522 58 263 2.0 7.0 0.00 0.07 0.00 74 1018.8
20260507174522 57 242 2.0 7.0 0.00 0.07 0.00 75 1018.9
20260507172522 56 0 0.0 0.0 0.00 0.07 0.00 76 1019.0
20260507172022 56 0 0.0 0.0 0.00 0.07 0.00 78 1019.1
20260507161021 54 0 0.0 0.0 0.00 0.07 0.00 81 1019.4
20260507155021 54 0 0.0 0.0 0.00 0.07 0.00 83 1019.4
20260507154021 54 0 0.0 0.0 0.00 0.07 0.00 83 1019.5
20260507153521 54 0 0.0 0.0 0.00 0.07 0.00 81 1019.5
20260507153021 54 0 0.0 0.0 0.00 0.07 0.00 83 1019.5
20260507152522 54 0 0.0 0.0 0.00 0.07 0.00 84 1019.5
20260507150521 53 0 0.0 0.0 0.00 0.07 0.00 86 1019.4
20260507150022 53 0 0.0 0.0 0.00 0.07 0.00 86 1019.5
20260507145521 53 0 0.0 0.0 0.00 0.07 0.00 87 1019.5
20260507145021 53 0 0.0 0.0 0.00 0.07 0.00 87 1019.4
20260507144021 53 0 0.0 0.0 0.00 0.07 0.00 88 1019.4
20260507143021 53 0 0.0 0.0 0.00 0.07 0.00 86 1019.4
20260507142522 52 0 0.0 0.0 0.00 0.07 0.00 87 1019.4
20260507142021 53 0 0.0 0.0 0.00 0.07 0.00 86 1019.5
20260507140521 52 0 0.0 0.0 0.00 0.07 0.00 85 1019.3
20260507140112 52 0 0.0 0.0 0.00 0.07 0.00 84 1019.3
20260507140021 52 0 0.0 0.0 0.00 0.07 0.00 84 1019.3
20260507135521 52 0 0.0 0.0 0.00 0.07 0.00 84 1019.3
20260507135021 52 0 0.0 0.0 0.00 0.07 0.00 85 1019.2
20260507134522 52 0 0.0 0.0 0.00 0.07 0.00 85 1019.2
20260507133521 52 0 0.0 0.0 0.00 0.07 0.00 86 1019.1
20260507133021 52 0 0.0 0.0 0.00 0.07 0.00 87 1019.1
20260507132021 52 0 0.0 0.0 0.00 0.07 0.00 87 1019.0
20260507131021 52 0 0.0 0.0 0.00 0.07 0.00 87 1019.1
20260507130523 52 0 0.0 0.0 0.00 0.07 0.00 87 1019.1
20260507130021 52 0 0.0 0.0 0.00 0.07 0.00 87 1019.1
20260507125521 52 0 0.0 0.0 0.00 0.07 0.00 87 1019.0
20260507125021 52 0 0.0 0.0 0.00 0.07 0.00 87 1019.0
20260507124022 52 0 0.0 0.0 0.00 0.07 0.00 87 1019.1
20260507123521 52 0 0.0 0.0 0.00 0.07 0.00 87 1019.0
20260507123021 52 0 0.0 0.0 0.00 0.07 0.00 87 1019.1
20260507122021 52 0 0.0 0.0 0.00 0.07 0.00 86 1019.3
20260507120021 52 0 0.0 0.0 0.00 0.07 0.00 87 1019.3
20260507115521 52 0 0.0 0.0 0.00 0.07 0.00 87 1019.4
20260507115021 52 0 0.0 0.0 0.00 0.07 0.00 87 1019.4
20260507114021 52 0 0.0 0.0 0.00 0.07 0.00 88 1019.5
20260507113521 52 0 0.0 0.0 0.00 0.07 0.00 88 1019.5
20260507113023 52 0 0.0 0.0 0.00 0.07 0.00 88 1019.5
20260507112020 53 0 0.0 0.0 0.00 0.07 0.00 88 1019.5
20260507111023 53 0 0.0 0.0 0.00 0.07 0.00 88 1019.5
20260507110022 53 0 0.0 0.0 0.00 0.07 0.00 88 1019.6
20260507105521 53 0 0.0 0.0 0.00 0.07 0.00 88 1019.5
20260507105021 53 0 0.0 0.0 0.00 0.07 0.00 88 1019.5
20260507104523 53 0 0.0 0.0 0.00 0.07 0.00 88 1019.6
20260507104021 53 0 0.0 0.0 0.00 0.07 0.00 88 1019.6
20260507103522 53 0 0.0 0.0 0.00 0.07 0.00 88 1019.7
20260507102021 53 0 0.0 0.0 0.00 0.07 0.00 88 1019.8
20260507101522 53 0 0.0 0.0 0.00 0.07 0.00 89 1019.8
20260507101021 53 0 0.0 0.0 0.00 0.07 0.00 89 1019.8
20260507100520 53 0 0.0 0.0 0.00 0.07 0.00 89 1019.8
20260507100021 53 0 0.0 0.0 0.00 0.07 0.00 89 1019.9
20260507095521 53 0 0.0 0.0 0.00 0.07 0.00 89 1019.9
20260507095021 53 0 0.0 0.0 0.00 0.07 0.00 89 1020.0
20260507094021 53 0 0.0 0.0 0.00 0.07 0.00 89 1020.0
20260507093021 53 0 0.0 0.0 0.00 0.07 0.00 89 1020.0
20260507092521 53 0 0.0 0.0 0.00 0.07 0.00 89 1020.1
20260507091522 53 0 0.0 0.0 0.00 0.07 0.00 89 1020.1
20260507091021 53 0 0.0 0.0 0.00 0.07 0.00 89 1020.2
20260507090521 53 0 0.0 0.0 0.00 0.07 0.00 88 1020.2
20260507085521 53 0 0.0 0.0 0.00 0.07 0.00 89 1020.3
20260507085021 53 0 0.0 0.0 0.00 0.07 0.00 89 1020.3
20260507083521 53 0 0.0 0.0 0.00 0.07 0.00 89 1020.3
20260507083021 53 0 0.0 0.0 0.00 0.07 0.00 89 1020.3
20260507082521 54 0 0.0 0.0 0.00 0.07 0.00 88 1020.3
20260507082021 53 0 0.0 0.0 0.00 0.07 0.00 89 1020.3
20260507081022 53 0 0.0 0.0 0.00 0.07 0.00 89 1020.3
20260507080523 0 0 0.0 0.0 0.00 0.07 0.00 89 1020.3
20260507080021 54 0 0.0 0.0 0.00 0.07 0.00 89 1020.3
20260507075520 54 0 0.0 0.0 0.00 0.07 0.00 90 1020.2
20260507075021 54 0 0.0 0.0 0.00 0.07 0.00 90 1020.2
20260507073521 54 0 0.0 0.0 0.00 0.07 0.00 90 1020.2
20260507072521 54 0 0.0 0.0 0.00 0.07 0.00 91 1020.2
20260507072021 54 0 0.0 0.0 0.00 0.07 0.00 91 1020.2
20260507070521 54 0 0.0 0.0 0.00 0.07 0.00 91 1020.1
20260507070021 54 0 0.0 0.0 0.00 0.07 0.00 91 1020.2
20260507065021 54 0 0.0 0.0 0.00 0.07 0.07 90 1020.1
20260507063521 54 0 0.0 0.0 0.00 0.07 0.07 90 1020.1
20260507063021 54 0 0.0 0.0 0.00 0.07 0.07 90 1020.2
20260507062521 54 0 0.0 0.0 0.00 0.07 0.07 90 1020.1
20260507062021 54 0 0.0 0.0 0.00 0.07 0.07 90 1020.2
20260507061021 54 0 0.0 0.0 0.00 0.07 0.07 90 1020.2
20260507060521 54 0 0.0 0.0 0.00 0.07 0.07 91 1020.2
20260507060020 54 0 0.0 0.0 0.00 0.07 0.07 91 1020.2
20260507055521 54 0 0.0 0.0 0.00 0.07 0.07 91 1020.3
20260507053521 54 0 0.0 0.0 0.00 0.07 0.07 90 1020.3
20260507053021 55 0 0.0 0.0 0.00 0.07 0.07 90 1020.3
20260507052522 55 0 0.0 0.0 0.00 0.07 0.07 90 1020.3
20260507052021 55 0 0.0 0.0 0.00 0.07 0.07 90 1020.3
20260507051024 55 0 0.0 0.0 0.00 0.07 0.07 90 1020.2
20260507050021 55 0 0.0 0.0 0.00 0.07 0.07 90 1020.2
20260507045520 55 0 0.0 0.0 0.00 0.07 0.07 90 1020.2
20260507045020 55 0 0.0 0.0 0.00 0.07 0.07 90 1020.2
20260507044020 55 0 0.0 0.0 0.00 0.07 0.07 90 1020.2
20260507043520 55 0 0.0 0.0 0.00 0.07 0.07 90 1020.2
20260507043051 55 0 0.0 0.0 0.00 0.07 0.07 90 1020.2
20260507043020 55 0 0.0 0.0 0.00 0.07 0.07 90 1020.2
20260507042520 55 0 0.0 0.0 0.00 0.07 0.07 90 1020.3
20260507042022 55 0 0.0 0.0 0.00 0.07 0.07 90 1020.3
20260507041020 55 0 0.0 0.0 0.00 0.07 0.07 90 1020.2
20260507040520 55 0 0.0 0.0 0.00 0.07 0.07 90 1020.1
20260507040020 55 0 0.0 0.0 0.00 0.07 0.07 90 1020.1
20260507033019 55 0 0.0 0.0 0.00 0.07 0.07 90 1019.9
20260507032520 55 0 0.0 0.0 0.00 0.07 0.07 89 1019.9
20260507032021 55 0 0.0 1.0 0.00 0.07 0.07 89 1019.9
20260507031021 55 323 1.0 1.0 0.00 0.07 0.07 89 1019.8
20260507030521 55 0 0.0 0.0 0.00 0.07 0.07 89 1019.7
20260507030020 55 0 0.0 0.0 0.00 0.07 0.07 89 1019.8
20260507025520 55 0 0.0 0.0 0.00 0.07 0.07 90 1019.8
20260507025022 55 0 0.0 0.0 0.00 0.07 0.07 90 1019.7
20260507023520 56 0 0.0 0.0 0.00 0.07 0.07 89 1019.7
20260507023020 56 0 0.0 0.0 0.00 0.07 0.07 89 1019.7
20260507022520 56 0 0.0 0.0 0.00 0.07 0.07 89 1019.6
20260507022020 56 0 0.0 0.0 0.00 0.07 0.07 89 1019.7
20260507021020 56 0 0.0 0.0 0.00 0.07 0.07 89 1019.7
20260507020520 56 0 0.0 0.0 0.00 0.07 0.07 89 1019.7
20260507020024 56 0 0.0 0.0 0.00 0.07 0.07 89 1019.7
20260507015520 56 0 0.0 0.0 0.00 0.07 0.07 88 1019.7
20260507015020 56 0 0.0 0.0 0.00 0.07 0.07 88 1019.8
20260507014021 56 0 0.0 0.0 0.00 0.07 0.07 88 1019.8
20260507013519 56 0 0.0 0.0 0.00 0.07 0.07 88 1019.8
20260507013019 56 0 0.0 0.0 0.00 0.07 0.07 88 1019.9
20260507012520 56 0 0.0 0.0 0.00 0.07 0.07 88 1019.9
20260507012020 56 0 0.0 0.0 0.00 0.07 0.07 88 1019.9
20260507011020 56 0 0.0 0.0 0.00 0.07 0.07 88 1019.9
20260507010522 56 0 0.0 0.0 0.00 0.07 0.07 87 1020.0
20260507010021 57 0 0.0 0.0 0.00 0.07 0.07 87 1020.0
20260507005520 57 0 0.0 0.0 0.00 0.07 0.07 87 1019.9
20260507005020 57 0 0.0 0.0 0.00 0.07 0.07 87 1020.1
20260507004020 57 0 0.0 0.0 0.00 0.07 0.07 86 1020.0
20260507003520 57 0 0.0 0.0 0.00 0.07 0.07 86 1020.0
20260507001019 57 222 0.0 4.0 0.00 0.07 0.07 85 1020.2
20260507000522 57 224 0.0 3.0 0.00 0.07 0.07 85 1020.1
20260507000019 57 224 0.0 3.0 0.00 0.07 0.07 85 1020.1
20260506235519 57 229 1.0 3.0 0.00 0.07 0.07 86 1020.2
20260506235020 57 0 0.0 0.0 0.00 0.07 0.07 85 1020.2
20260506234520 57 228 0.0 6.0 0.00 0.07 0.07 86 1020.2
20260506234023 57 196 0.0 6.0 0.00 0.07 0.07 85 1020.3
20260506233520 57 222 0.0 6.0 0.00 0.07 0.07 85 1020.3
20260506233020 57 0 0.0 0.0 0.00 0.07 0.07 85 1020.3
20260506232520 57 0 0.0 0.0 0.00 0.07 0.07 85 1020.3
20260506231520 57 231 0.0 6.0 0.00 0.07 0.07 84 1020.4
20260506231019 58 219 1.0 6.0 0.00 0.07 0.07 84 1020.4
20260506230520 58 219 1.0 6.0 0.00 0.07 0.07 83 1020.5
20260506230019 58 236 2.0 4.0 0.00 0.07 0.07 83 1020.4
20260506225520 58 236 1.0 4.0 0.00 0.07 0.07 82 1020.5
20260506225020 58 224 1.0 4.0 0.00 0.07 0.07 82 1020.6
20260506224520 59 224 1.0 4.0 0.00 0.07 0.07 82 1020.6
20260506224019 59 203 0.0 3.0 0.00 0.07 0.07 82 1020.6
20260506223520 59 203 0.0 3.0 0.07 0.07 0.07 81 1020.7
20260506223020 59 221 2.0 3.0 0.07 0.07 0.07 81 1020.8
20260506222520 59 226 1.0 4.0 0.07 0.07 0.07 82 1020.8
20260506222024 59 219 1.0 4.0 0.07 0.00 0.00 81 1020.8
20260506222020 59 219 1.0 4.0 0.07 0.07 0.07 81 1020.8
20260506221519 59 285 1.0 4.0 0.07 0.07 0.07 82 1020.8
20260506220019 59 240 0.0 5.0 0.07 0.07 0.07 82 1020.7
20260506215520 58 221 3.0 4.0 0.07 0.07 0.07 81 1020.7
20260506215020 59 221 2.0 4.0 0.07 0.07 0.07 81 1020.6
20260506214519 59 261 0.0 2.0 0.07 0.07 0.07 82 1020.6
20260506213020 59 256 1.0 2.0 0.00 0.00 0.00 81 1020.6
20260506212020 59 267 0.0 3.0 0.00 0.00 0.00 81 1020.6
20260506211520 59 232 1.0 3.0 0.00 0.00 0.00 80 1020.5
20260506210520 59 235 1.0 5.0 0.00 0.00 0.00 81 1020.5
20260506205520 59 219 0.0 5.0 0.00 0.00 0.00 81 1020.5
20260506205020 58 225 0.0 4.0 0.00 0.00 0.00 80 1020.5
20260506204020 58 257 0.0 2.0 0.00 0.00 0.00 81 1020.5
20260506203520 58 226 1.0 2.0 0.00 0.00 0.00 82 1020.4
20260506203019 58 261 0.0 2.0 0.00 0.00 0.00 81 1020.4
20260506202520 58 261 0.0 2.0 0.00 0.00 0.00 81 1020.3